Location: Boursonne
(49.2024°N, 3.0468°E)
Time: 03:38:48
(UTC+00:00)

Cosmos 1354 Rocket - Pass Details

Date: 03 March 2021
Orbit: 765 x 782 km, 74.0° (Epoch: 17 April)

Event Time Altitude Azimuth Distance (km) Brightness Sun altitude
Rises 18:17:51 0° 339° (NNW) 3,254 7.5 -7.9°
Reaches altitude 10° 18:20:18 10° 344° (NNW) 2,320 6.7 -8.3°
Maximum altitude 18:25:27 52° 61° (ENE) 949 4.2 -9.1°
Drops below altitude 10° 18:30:32 10° 138° (SE) 2,299 6.1 -10.0°
Sets 18:32:57 0° 143° (SE) 3,221 6.9 -10.4°
